Weather History for Quantico, VA

Change the Weather History Date:

Monday, June 9, 2014

  Actual Average Record
Temperature  
Mean Temperature 77 °F -  
Max Temperature 82 °F 77 °F 97 °F (1999)
Min Temperature 72 °F 61 °F 52 °F (1998)
Cooling Degree Days 12    
Growing Degree Days 27 (Base 50)    
Moisture  
Dew Point 68 °F    
Average Humidity 75    
Maximum Humidity 85    
Minimum Humidity 65    
Precipitation  
Precipitation 0.03 in - - ()
Sea Level Pressure  
Sea Level Pressure 29.88 in    
Wind  
Wind Speed 9 mph (South)    
Max Wind Speed 14 mph    
Max Gust Speed -    
Visibility 10 miles    
Events Rain    
Averages and records for this station are not official NWS values.
T = Trace of Precipitation, MM = Missing Value Source: NWS Daily Summary

Daily Weather History Graph

Daily Weather History Graph

Search for Another Location

Airport:

Trip Planner

Search our weather history database for the weather conditions in past years. The results will help you decide how hot, cold, wet, or windy it might be!

Date:

Astronomy

Jun. 09, 2014 Rise Set
Actual Time 5:44 AM EDT 8:32 PM EDT
Civil Twilight 5:13 AM EDT 9:03 PM EDT
Nautical Twilight 4:33 AM EDT 9:43 PM EDT
Astronomical Twilight 3:48 AM EDT 10:28 PM EDT
Moon 4:53 PM EDT (6/9) 3:08 AM EDT (6/9)
Length of Visible Light 15h 50m
Length of Day
14h 47m
Waxing Gibbous, 85% of the Moon is Illuminated
Jun 9
Waxing Gibbous
Jun 13
Full
Jun 19
Last Quarter
Jun 27
New
Jul 5
First Quarter

Hourly Weather History & Observations

Time (EDT) Temp. Heat Index Dew Point Humidity Pressure Visibility Wind Dir Wind Speed Gust Speed Precip Events Conditions
12:56 AM 75.9 °F - 66.0 °F 71% 29.88 in 10.0 mi SSW 13.8 mph - N/A   Overcast
1:56 AM 75.0 °F - 64.9 °F 71% 29.88 in 10.0 mi SSW 11.5 mph - 0.00 in Rain Light Rain
2:56 AM 72.0 °F - 66.9 °F 84% 29.87 in 10.0 mi WNW 4.6 mph - 0.03 in   Overcast
3:56 AM 73.0 °F - 66.9 °F 81% 29.87 in 10.0 mi SSW 10.4 mph - N/A   Overcast
4:56 AM 73.0 °F - 66.9 °F 81% 29.86 in 10.0 mi South 12.7 mph - N/A   Scattered Clouds
5:56 AM 72.0 °F - 66.9 °F 84% 29.88 in 10.0 mi South 10.4 mph - N/A   Clear
6:56 AM 72.0 °F - 66.0 °F 81% 29.89 in 10.0 mi SW 6.9 mph - N/A   Mostly Cloudy
7:56 AM 73.0 °F - 64.9 °F 76% 29.90 in 10.0 mi SSW 5.8 mph - N/A   Mostly Cloudy
8:56 AM 75.0 °F - 66.0 °F 73% 29.91 in 10.0 mi SSW 5.8 mph - N/A   Mostly Cloudy
9:56 AM 75.9 °F - 66.9 °F 74% 29.91 in 10.0 mi South 10.4 mph - N/A   Mostly Cloudy
10:56 AM 77.0 °F - 68.0 °F 74% 29.91 in 10.0 mi South 10.4 mph - N/A   Mostly Cloudy
11:56 AM 78.1 °F - 68.0 °F 71% 29.91 in 10.0 mi South 8.1 mph - N/A   Mostly Cloudy
12:56 PM 80.1 °F 82.9 °F 69.1 °F 69% 29.90 in 10.0 mi South 10.4 mph - N/A   Partly Cloudy
1:56 PM 79.0 °F - 66.9 °F 66% 29.90 in 10.0 mi SSW 5.8 mph - N/A   Mostly Cloudy
3:56 PM 82.0 °F 85.5 °F 69.1 °F 65% 29.88 in 10.0 mi South 5.8 mph - N/A   Mostly Cloudy
4:56 PM 82.0 °F 85.9 °F 70.0 °F 67% 29.87 in 10.0 mi South 8.1 mph - N/A   Partly Cloudy
5:56 PM 82.0 °F 86.3 °F 71.1 °F 69% 29.86 in 10.0 mi South 9.2 mph - N/A   Overcast
6:56 PM 82.0 °F 86.3 °F 71.1 °F 69% 29.86 in 10.0 mi SE 5.8 mph - N/A   Clear
7:56 PM 80.1 °F 83.8 °F 72.0 °F 76% 29.87 in 10.0 mi SE 4.6 mph - N/A   Clear
8:56 PM 79.0 °F - 72.0 °F 79% 29.87 in 10.0 mi SSE 5.8 mph - N/A   Clear
9:56 PM 78.1 °F - 71.1 °F 79% 29.88 in 10.0 mi SSE 8.1 mph - N/A   Clear
10:56 PM 77.0 °F - 70.0 °F 79% 29.89 in 10.0 mi South 6.9 mph - N/A   Clear
11:56 PM 75.9 °F - 71.1 °F 85% 29.90 in 10.0 mi SSE 5.8 mph - N/A   Mostly Cloudy